Regional Weather Roundup
Issued by NWS Charleston, SC

Current Version | Previous Version | Graphics & Text | Print | Product List | Glossary On
Versions: 1 2 3 4 5 6 7 8 9 10 11 12 13 14 15 16 17 18 19 20 21 22 23 24 25 26 27 28 29 30 31 32 33 34 35 36 37 38 39 40 41 42 43 44 45 46 47 48 49 50
000
ASUS42 KCHS 242212
RWRCHS

Regional Weather Roundup
National Weather Service Charleston SC
500 PM EST SAT FEB 24 2018

NOTE: "fair" indicates few or no clouds below 12,000 feet with no
significant weather and/or obstructions to visibility.

Not all stations are quality controlled. Use data with caution,
especially dewpoint observations.

SCZ027-030-031-034>040-042>050-242300-
...Southeast South Carolina...

CITY           SKY/WX    TMP DP  RH WIND       PRES   REMARKS
N Charleston   FAIR      77  62  59 S13       30.13S
Waterfront Prk   N/A     71  66  84 S9        29.99S
Mount Pleasant FAIR      73  64  73 S12G20    30.14F
Johns Island   FAIR      73  66  78 S12       30.15S
Pinopolis        N/A     81  63  54 SW5       30.04F
Moncks Corner  FAIR      77  55  47 S13       30.11F
Summerville    FAIR      79  61  53 S8        30.12F
Beaufort MCAS  FAIR      74  68  81 S12       30.13S
Beaufort Arpt  FAIR      73  63  68 S13       30.14S
Hilton Head Is SUNNY     70  66  88 S9        30.15F
Walterboro     FAIR      77  63  61 S15       30.12S
Allendale      FAIR      81  55  41 S7        30.08F

...Southern Midlands and Pee Dee...

CITY           SKY/WX    TMP DP  RH WIND       PRES   REMARKS
Georgetown     FAIR      73  63  68 S13G20    30.14S
Kingstree      FAIR      77  57  50 CALM      30.10F
Orangeburg     FAIR      80  56  43 S9        30.09F
Barnwell         N/A     82  63  51 S8        30.09S
Aiken          FAIR      79  59  50 S9        30.11F
Manning        FAIR     N/A N/A N/A MISG      30.10F
Columbia       FAIR      81  59  47 S12       30.07F
Sumter         FAIR      80  57  44 SW12      30.06F
Florence       FAIR      80  56  43 SW12      30.09F
Myrtle Beach   FAIR      70  63  78 S16G22    30.14S
N Myrtle Beach CLOUDY    67  63  87 S15       30.13F

$$

GAZ063-065-086>088-099>101-113>116-118-119-134>141-150-242300-
...Southeast Georgia...

CITY           SKY/WX    TMP DP  RH WIND       PRES   REMARKS
Savannah Arpt  FAIR      79  60  52 S15       30.12F
Hunter AAF     FAIR      76  62  62 S10       30.10F
Fort Stewart   FAIR      80  63  57 SE12G18   30.09F
Statesboro     PTSUNNY   83  49  30 S10       30.09F
Sylvania       MOCLDY    82  62  50 SW7       30.10F
Claxton        FAIR      83  58  41 SE6       30.10S

...CSRA, Central and far Southeast Georgia...

CITY           SKY/WX    TMP DP  RH WIND       PRES   REMARKS
Thomson        FAIR      80  57  46 W6        30.11F
Augusta-Bush   PTSUNNY   82  58  43 S8        30.06F
Augusta-Daniel FAIR      83  58  42 S10G18    30.07F
Swainsboro     FAIR      82  57  42 S9        30.09F
Vidalia        FAIR      84  57  39 SW10      30.09F
Eastman        FAIR      84  38  19 SW9       30.10S
Hazlehurst     FAIR      83  46  27 S8        30.08F
Alma           FAIR      84  57  39 S12       30.09F
Waycross       FAIR      83  53  34 S8        30.10F
Jesup          FAIR      82  61  47 SE8       30.11S
Baxley         FAIR      79  55  44 S3        30.09F
Brunswick      FAIR      73  63  68 S13G20    30.14S
Saint Simons   FAIR      73  66  78 SE10      30.13F

$$

SCZ027-028-034-036>038-045-046-048>050-GAZ119-141-242300-
...Lake and Supplemental Coastal Observations...

STATION/POSITION TIME  TEMP    WIND        PRES    WAVE   SWELL
                       AIR SEA DIR/SP/G            HT/PER HT/PER/DIR
                 (UTC) (F)     (DEG/KT/KT) (MB)    (FT/S) (FT/S/D)
Winyah Bay       2045   75     210/ 14     1021.0
Lake Murray      2120   73     190/  9/ 12 1017.6
ACE Basin NERRS  2045   74     170/  4     1021.0
Fort Pulaski     2148   72 63  170/  8/ 12 1020.9F
Sapelo Island    2100   76     160/ 11     1020.0

$$

ANZ835-935-AMZ111-154-330-350-352-354-370-450-454-472-242300-
...C-MAN and Buoy Observations...

STATION/POSITION TIME  TEMP    WIND        PRES    WAVE   SWELL
                       AIR SEA DIR/SP/G            HT/PER HT/PER/DIR
                 (UTC) (F)     (DEG/KT/KT) (MB)    (FT/S) (FT/S/D)
Buoy 41004       2150   71 71  200/  6/  8 1021.1F   4/10   3/130/10
Buoy 41008       2150   65 62  130/  8/  8 1020.4F   3/10   3/110/10
Folly Beach CMAN 2100   67     180/  7/  8 1021.9F
Capers Nearshore 2108   64 67  190/ 10/ 12 1020.8F
Fripp Nearshore  2108   65 65  160/  8/ 12 1019.8F


STATION/POSITION TIME  TEMP    WIND        PRES    WAVE   SWELL
                       AIR SEA DIR/SP/G            HT/PER HT/PER/DIR
                 (UTC) (F)     (DEG/KT/KT) (MB)    (FT/S) (FT/S/D)
5E St. Marys GA  2200      64                N/A     3/ 9   2/110/11
Frying Pan Buoy  2150   72 71  210/ 14/ 16 1021.3F   4/ 9   3/160/ 9
Buoy 41025       2150   72 73  230/ 19/ 23 1021.2F   5/ 9   3/ 80/ 9
Cape Lookout NC  2200          210/  9/ 13 1021.2F
Buoy 41002       2150   72 73  210/  8/ 10 1023.7S   5/10   5/100/10
Buoy 41010       NOT AVBL
St Augustine FL  2200   71 69  130/ 10/ 11 1020.8F


$$



USA.gov is the U.S. government's official web portal to all federal, state and local government web resources and services.